{"data":{"norad_id":57146,"intl_designator":"2023-090AX","name":"STARLINK-5791","alt_names":[],"object_type":"PAYLOAD","status":"ACTIVE","operator":null,"country":"US","launch_date":"2023-06-23","launch_site_code":"AFETR","launch_vehicle":null,"mission":null,"orbit_class":"UNKNOWN","rcs_meters":null,"size_class":null,"mass_kg":null,"dimensions":null,"purposes":["comms"],"wikipedia_slug":null,"has_3d_model":false,"image_url":null,"decayed_at":null,"tle_current":{"epoch":"2026-05-25T04:23:04.993152Z","epoch_age_seconds":59293,"freshness":"FRESH","line1":"1 57146U 23090AX  26145.18269668  .00000434  00000+0  25305-4 0  9990","line2":"2 57146  43.0032 191.2031 0001856 277.5172  82.5469 15.27577255162059","mean_motion":15.27577255,"eccentricity":0.0001856,"inclination_deg":43.0032,"raan_deg":191.2031,"arg_perigee_deg":277.5172,"mean_anomaly_deg":82.5469,"bstar":2.5305e-5,"rev_number":16205,"period_min":94.266918107523,"perigee_km":481.7838779045,"apogee_km":484.33075323444,"semimajor_km":6861.1943155695,"source":"CELESTRAK","updated_at":"2026-05-25T13:38:18.248842Z"}}}